Weather History for Delaware, OH

Change the Weather History Date:

Saturday, September 14, 2013

  Actual Average Record
Temperature  
Mean Temperature 54 °F -  
Max Temperature 66 °F 79 °F 102 °F (1939)
Min Temperature 41 °F 52 °F 34 °F (1964)
Degree Days  
Heating Degree Days 12    
Growing Degree Days 4 (Base 50)    
Moisture  
Dew Point 42 °F    
Average Humidity 74    
Maximum Humidity 100    
Minimum Humidity 35    
Precipitation  
Precipitation 0.00 in - - ()
Sea Level Pressure  
Sea Level Pressure 30.15 in    
Wind  
Wind Speed 3 mph (North)    
Max Wind Speed 8 mph    
Max Gust Speed -    
Visibility 10 miles    
Events      
Averages and records for this station are not official NWS values.
T = Trace of Precipitation, MM = Missing Value Source: NWS Daily Summary

Daily Weather History Graph

Daily Weather History Graph

Search for Another Location

Airport:

Trip Planner

Search our weather history database for the weather conditions in past years. The results will help you decide how hot, cold, wet, or windy it might be!

Date:

Astronomy

Sep. 14, 2013 Rise Set
Actual Time 7:12 AM EDT 7:42 PM EDT
Civil Twilight 6:45 AM EDT 8:09 PM EDT
Nautical Twilight 6:13 AM EDT 8:41 PM EDT
Astronomical Twilight 5:39 AM EDT 9:14 PM EDT
Moon 4:23 PM EDT (9/14) 1:42 AM EDT (9/14)
Length of Visible Light 13h 24m
Length of Day
12h 29m
Waxing Gibbous, 72% of the Moon is Illuminated
Sep 14
Waxing Gibbous
Sep 19
Full
Sep 26
Last Quarter
Oct 4
New
Oct 11
First Quarter

Hourly Weather History & Observations

Time (EDT) Temp. Windchill Dew Point Humidity Pressure Visibility Wind Dir Wind Speed Gust Speed Precip Events Conditions
12:15 AM 46.4 °F 45.2 °F 42.8 °F 87% 30.11 in 10.0 mi NNW 3.5 mph - N/A   Clear
12:35 AM 44.6 °F - 42.8 °F 93% 30.11 in 10.0 mi Calm Calm - N/A   Clear
12:55 AM 44.6 °F - 42.8 °F 93% 30.11 in 10.0 mi Calm Calm - N/A   Clear
1:15 AM 44.6 °F 43.1 °F 42.8 °F 93% 30.11 in 10.0 mi NW 3.5 mph - N/A   Clear
1:35 AM 42.8 °F 41.1 °F 42.8 °F 100% 30.12 in 10.0 mi NW 3.5 mph - N/A   Clear
1:55 AM 42.8 °F 39.3 °F 42.8 °F 100% 30.12 in 10.0 mi NW 5.8 mph - N/A   Clear
2:15 AM 42.8 °F 41.1 °F 42.8 °F 100% 30.12 in 10.0 mi NW 3.5 mph - N/A   Clear
2:35 AM 42.8 °F 39.3 °F 41.0 °F 93% 30.13 in 10.0 mi WNW 5.8 mph - N/A   Clear
2:55 AM 42.8 °F 41.1 °F 41.0 °F 93% 30.13 in 10.0 mi NW 3.5 mph - N/A   Clear
3:15 AM 41.0 °F 39.0 °F 41.0 °F 100% 30.13 in 7.0 mi NW 3.5 mph - N/A   Clear
3:35 AM 41.0 °F 38.0 °F 41.0 °F 100% 30.13 in 7.0 mi NW 4.6 mph - N/A   Clear
3:56 AM 42.8 °F 41.1 °F 41.0 °F 93% 30.12 in 7.0 mi NW 3.5 mph - N/A   Clear
4:15 AM 41.0 °F - 41.0 °F 100% 30.12 in 10.0 mi Calm Calm - N/A   Clear
4:35 AM 41.0 °F 39.0 °F 41.0 °F 100% 30.13 in 10.0 mi NW 3.5 mph - N/A   Clear
4:56 AM 41.0 °F 39.0 °F 41.0 °F 100% 30.13 in 10.0 mi NW 3.5 mph - N/A   Clear
5:15 AM 41.0 °F - 39.2 °F 93% 30.13 in 7.0 mi Calm Calm - N/A   Clear
5:35 AM 41.0 °F 39.0 °F 39.2 °F 93% 30.14 in 10.0 mi NW 3.5 mph - N/A   Clear
5:56 AM 41.0 °F - 39.2 °F 93% 30.14 in 10.0 mi Calm Calm - N/A   Clear
6:15 AM 41.0 °F 38.0 °F 39.2 °F 93% 30.14 in 10.0 mi North 4.6 mph - N/A   Scattered Clouds
6:35 AM 41.0 °F 38.0 °F 39.2 °F 93% 30.14 in 10.0 mi North 4.6 mph - N/A   Clear
6:56 AM 41.0 °F 39.0 °F 39.2 °F 93% 30.15 in 10.0 mi North 3.5 mph - N/A   Clear
7:15 AM 41.0 °F - 37.4 °F 87% 30.15 in 10.0 mi Calm Calm - N/A   Clear
7:35 AM 41.0 °F - 37.4 °F 87% 30.16 in 10.0 mi Calm Calm - N/A   Clear
7:56 AM 41.0 °F 39.0 °F 41.0 °F 100% 30.17 in 10.0 mi North 3.5 mph - N/A   Clear
8:15 AM 42.8 °F 41.1 °F 41.0 °F 93% 30.17 in 10.0 mi North 3.5 mph - N/A   Clear
8:35 AM 44.6 °F 43.1 °F 42.8 °F 93% 30.18 in 10.0 mi North 3.5 mph - N/A   Clear
8:56 AM 46.4 °F - 42.8 °F 87% 30.18 in 10.0 mi Calm Calm - N/A   Clear
9:15 AM 50.0 °F - 44.6 °F 82% 30.18 in 10.0 mi North 3.5 mph - N/A   Clear
9:35 AM 51.8 °F - 44.6 °F 76% 30.19 in 10.0 mi Calm Calm - N/A   Clear
9:56 AM 53.6 °F - 42.8 °F 67% 30.19 in 10.0 mi North 3.5 mph - N/A   Clear
10:15 AM 53.6 °F - 42.8 °F 67% 30.20 in 10.0 mi Calm Calm - N/A   Clear
10:35 AM 53.6 °F - 42.8 °F 67% 30.20 in 10.0 mi Calm Calm - N/A   Scattered Clouds
10:55 AM 55.4 °F - 41.0 °F 58% 30.20 in 10.0 mi ENE 8.1 mph - N/A   Scattered Clouds
11:15 AM 57.2 °F - 41.0 °F 55% 30.19 in 10.0 mi NE 4.6 mph - N/A   Clear
11:35 AM 59.0 °F - 41.0 °F 51% 30.19 in 10.0 mi ENE 6.9 mph - N/A   Clear
11:55 AM 59.0 °F - 41.0 °F 51% 30.20 in 10.0 mi NNE 4.6 mph - N/A   Clear
12:15 PM 59.0 °F - 41.0 °F 51% 30.19 in 10.0 mi NNE 3.5 mph - N/A   Clear
12:35 PM 60.8 °F - 42.8 °F 52% 30.19 in 10.0 mi North 3.5 mph - N/A   Clear
12:55 PM 60.8 °F - 41.0 °F 48% 30.19 in 10.0 mi NE 6.9 mph - N/A   Clear
1:15 PM 60.8 °F - 41.0 °F 48% 30.18 in 10.0 mi Calm Calm - N/A   Clear
1:35 PM 62.6 °F - 41.0 °F 45% 30.18 in 10.0 mi East 3.5 mph - N/A   Clear
1:55 PM 62.6 °F - 42.8 °F 48% 30.17 in 10.0 mi NNE 6.9 mph - N/A   Clear
2:15 PM 62.6 °F - 41.0 °F 45% 30.17 in 10.0 mi Calm Calm - N/A   Clear
2:35 PM 64.4 °F - 42.8 °F 45% 30.15 in 10.0 mi NNE 3.5 mph - N/A   Clear
2:55 PM 64.4 °F - 41.0 °F 42% 30.15 in 10.0 mi North 3.5 mph - N/A   Clear
3:15 PM 64.4 °F - 41.0 °F 42% 30.15 in 10.0 mi SW 3.5 mph - N/A   Clear
3:35 PM 64.4 °F - 41.0 °F 42% 30.14 in 10.0 mi North 3.5 mph - N/A   Clear
3:55 PM 66.2 °F - 41.0 °F 40% 30.14 in 10.0 mi NE 5.8 mph - N/A   Clear
4:15 PM 66.2 °F - 41.0 °F 40% 30.13 in 10.0 mi Calm Calm - N/A   Clear
4:36 PM 66.2 °F - 39.2 °F 37% 30.13 in 10.0 mi Calm Calm - N/A   Clear
4:55 PM 66.2 °F - 41.0 °F 40% 30.13 in 10.0 mi Calm Calm - N/A   Clear
5:15 PM 66.2 °F - 37.4 °F 35% 30.12 in 10.0 mi SE 3.5 mph - N/A   Clear
5:36 PM 66.2 °F - 37.4 °F 35% 30.12 in 10.0 mi Calm Calm - N/A   Clear
5:55 PM 64.4 °F - 37.4 °F 37% 30.12 in 10.0 mi Calm Calm - N/A   Clear
6:15 PM 64.4 °F - 41.0 °F 42% 30.12 in 10.0 mi SE 3.5 mph - N/A   Clear
6:36 PM 64.4 °F - 41.0 °F 42% 30.12 in 10.0 mi South 4.6 mph - N/A   Clear
6:55 PM 62.6 °F - 41.0 °F 45% 30.12 in 10.0 mi South 3.5 mph - N/A   Clear
7:15 PM 59.0 °F - 44.6 °F 59% 30.13 in 10.0 mi Calm Calm - N/A   Clear
7:36 PM 55.4 °F - 46.4 °F 72% 30.13 in 10.0 mi Calm Calm - N/A   Clear
7:55 PM 53.6 °F - 46.4 °F 77% 30.13 in 7.0 mi Calm Calm - N/A   Clear
8:15 PM 51.8 °F - 46.4 °F 82% 30.14 in 10.0 mi Calm Calm - N/A   Clear
8:36 PM 50.0 °F - 46.4 °F 87% 30.15 in 10.0 mi Calm Calm - N/A   Clear
8:55 PM 50.0 °F - 46.4 °F 87% 30.15 in 10.0 mi Calm Calm - N/A   Clear
9:15 PM 50.0 °F - 46.4 °F 87% 30.15 in 10.0 mi Calm Calm - N/A   Clear
9:36 PM 48.2 °F - 46.4 °F 93% 30.16 in 10.0 mi Calm Calm - N/A   Clear
9:55 PM 46.4 °F - 44.6 °F 93% 30.16 in 10.0 mi Calm Calm - N/A   Clear
10:15 PM 46.4 °F - 44.6 °F 93% 30.15 in 10.0 mi Calm Calm - N/A   Clear
10:35 PM 46.4 °F 45.2 °F 44.6 °F 93% 30.15 in 10.0 mi SE 3.5 mph - N/A   Clear
10:55 PM 44.6 °F - 44.6 °F 100% 30.15 in 10.0 mi Calm Calm - N/A   Clear
11:15 PM 44.6 °F 43.1 °F 44.6 °F 100% 30.15 in 10.0 mi ESE 3.5 mph - N/A   Clear
11:35 PM 44.6 °F - 42.8 °F 93% 30.15 in 10.0 mi Calm Calm - N/A   Clear
11:55 PM 44.6 °F - 42.8 °F 93% 30.14 in 10.0 mi Calm Calm - N/A   Clear